DW0268 Weather Reports


Display with metric or nautical units.
time (UTC)temp
F
wind
direction
speed
MPH
gust
MPH
rain 1hr
in
rain 24hr
in
rain mn
in
humidity
%
barometer
mb
20260903013052 87 139 1.0 4.0 0.00 0.00 0.00 71 1017.1
20260903011550 88 138 0.0 4.0 0.00 0.00 0.00 70 1016.8
20260903010049 88 132 3.0 5.0 0.00 0.00 0.00 69 1016.5
20260903004549 89 134 1.0 2.0 0.00 0.00 0.00 67 1016.6
20260903003048 90 129 4.0 5.0 0.00 0.00 0.00 65 1016.7
20260903001547 92 121 3.0 4.0 0.00 0.00 0.00 63 1016.7
20260903000048 94 139 2.0 4.0 0.00 0.00 0.00 60 1016.6
20260902234548 96 161 1.0 3.0 0.00 0.00 0.00 57 1016.7
20260902233044 96 169 1.0 4.0 0.00 0.00 0.00 57 1016.5
20260902231543 97 173 3.0 5.0 0.00 0.00 0.00 55 1016.7
20260902230043 97 155 3.0 6.0 0.00 0.00 0.00 54 1016.8
20260902224546 97 162 3.0 6.0 0.00 0.00 0.00 54 1016.8
20260902223038 97 163 2.0 6.0 0.00 0.00 0.00 55 1016.9
20260902221535 97 193 5.0 9.0 0.00 0.00 0.00 54 1016.8
20260902220033 97 122 4.0 9.0 0.00 0.00 0.00 53 1017.0
20260902214537 97 148 4.0 8.0 0.00 0.00 0.00 55 1017.0
20260902213032 97 125 4.0 10.0 0.00 0.00 0.00 52 1017.1
20260902211529 97 136 3.0 8.0 0.00 0.00 0.00 52 1017.2
20260902210043 97 165 6.0 11.0 0.00 0.00 0.00 51 1017.3
20260902204526 98 167 6.0 12.0 0.00 0.00 0.00 52 1017.5
20260902203023 98 152 4.0 11.0 0.00 0.00 0.00 51 1017.6
20260902201522 97 217 6.0 13.0 0.00 0.00 0.00 50 1017.8
20260902200031 97 171 4.0 11.0 0.00 0.00 0.00 51 1017.9
20260902194525 97 181 8.0 14.0 0.00 0.00 0.00 50 1018.1
20260902193018 97 163 7.0 14.0 0.00 0.00 0.00 49 1018.3
20260902191518 97 152 3.0 9.0 0.00 0.00 0.00 52 1018.5
20260902190014 97 213 4.0 13.0 0.00 0.00 0.00 54 1018.7
20260902184511 96 170 6.0 10.0 0.00 0.00 0.00 55 1018.8
20260902183009 95 234 4.0 11.0 0.00 0.00 0.00 56 1018.8
20260902181607 96 219 4.0 9.0 0.00 0.00 0.00 57 1018.8
20260902180006 95 206 5.0 10.0 0.00 0.00 0.00 58 1018.9
20260902174504 95 196 6.0 14.0 0.00 0.00 0.00 58 1019.3
20260902173004 95 234 6.0 10.0 0.00 0.00 0.00 59 1019.5
20260902171502 95 182 3.0 7.0 0.00 0.00 0.00 60 1019.6
20260902170059 94 236 3.0 9.0 0.00 0.00 0.00 60 1019.9
20260902164557 94 195 5.0 8.0 0.00 0.00 0.00 64 1020.0
20260902163058 93 178 3.0 8.0 0.00 0.00 0.00 66 1020.1
20260902161548 92 212 4.0 8.0 0.00 0.00 0.00 68 1020.2
20260902160044 91 223 4.0 6.0 0.00 0.00 0.00 69 1020.3
20260902154541 91 149 1.0 5.0 0.00 0.00 0.00 72 1020.4
20260902153039 89 198 4.0 7.0 0.00 0.00 0.00 75 1020.5
20260902151534 88 218 3.0 6.0 0.00 0.00 0.00 75 1020.6
20260902150030 87 227 3.0 7.0 0.00 0.00 0.00 76 1020.6
20260902144534 86 182 3.0 6.0 0.00 0.00 0.00 78 1020.6
20260902143023 85 208 3.0 6.0 0.00 0.00 0.00 80 1020.5
20260902141520 84 188 3.0 6.0 0.00 0.00 0.00 82 1020.6
20260902140017 82 207 3.0 6.0 0.00 0.00 0.00 83 1020.5
20260902134512 81 218 4.0 7.0 0.00 0.00 0.00 85 1020.6
20260902133008 80 210 2.0 6.0 0.00 0.00 0.00 87 1020.6
20260902131504 79 161 0.0 2.0 0.00 0.00 0.00 90 1020.6
20260902130002 78 161 0.0 2.0 0.00 0.00 0.00 90 1020.5
20260902124502 77 160 1.0 2.0 0.00 0.00 0.00 91 1020.4
20260902123110 76 160 0.0 2.0 0.00 0.00 0.00 92 1020.3
20260902121603 75 160 0.0 2.0 0.00 0.00 0.00 92 1020.1
20260902120056 75 160 2.0 4.0 0.00 0.00 0.00 92 1019.9
20260902114600 75 160 3.0 4.0 0.00 0.00 0.00 92 1019.7
20260902113058 75 160 0.0 2.0 0.00 0.00 0.00 91 1019.7
20260902111553 75 160 0.0 2.0 0.00 0.00 0.00 91 1019.7
20260902110052 75 160 1.0 3.0 0.00 0.00 0.00 91 1019.4
20260902104555 75 159 2.0 4.0 0.00 0.00 0.00 91 1019.3
20260902103057 75 153 1.0 3.0 0.00 0.00 0.00 91 1019.3
20260902101547 75 147 1.0 2.0 0.00 0.00 0.00 91 1019.1
20260902094545 76 145 2.0 3.0 0.00 0.00 0.00 91 1019.0
20260902093045 76 145 1.0 3.0 0.00 0.00 0.00 92 1019.0
20260902091603 76 145 0.0 1.0 0.00 0.00 0.00 92 1018.9
20260902090044 76 145 0.0 0.0 0.00 0.00 0.00 92 1018.9
20260902084545 76 145 0.0 0.0 0.00 0.00 0.00 91 1019.0
20260902083041 76 145 0.0 1.0 0.00 0.00 0.00 91 1018.9
20260902081541 76 145 0.0 2.0 0.00 0.00 0.00 91 1018.7
20260902080052 76 145 0.0 3.0 0.00 0.00 0.00 90 1018.9
20260902074538 77 144 1.0 2.0 0.00 0.00 0.00 90 1018.8
20260902073035 77 139 1.0 3.0 0.00 0.00 0.00 89 1018.9
20260902071552 78 135 1.0 2.0 0.00 0.00 0.00 89 1019.0
20260902070031 78 135 0.0 3.0 0.00 0.00 0.00 89 1019.0
20260902064530 78 135 2.0 3.0 0.00 0.00 0.00 88 1018.8
20260902063034 79 134 1.0 3.0 0.00 0.00 0.00 88 1018.9
20260902061541 79 134 1.0 2.0 0.00 0.00 0.00 88 1018.8
20260902060031 79 134 0.0 2.0 0.00 0.00 0.00 87 1018.9
20260902054534 79 134 1.0 4.0 0.00 0.00 0.00 87 1018.8
20260902053023 80 129 3.0 5.0 0.00 0.00 0.00 86 1018.7
20260902051516 79 131 3.0 5.0 0.00 0.00 0.00 87 1018.6
20260902050013 80 130 2.0 4.0 0.00 0.00 0.00 86 1018.4
20260902044516 80 123 2.0 4.0 0.00 0.00 0.00 85 1018.4
20260902043010 81 133 3.0 5.0 0.00 0.00 0.00 84 1018.3
20260902041511 81 130 3.0 4.0 0.00 0.00 0.00 83 1018.4
20260902040009 82 115 2.0 4.0 0.00 0.00 0.00 82 1018.5
20260902034509 82 110 3.0 6.0 0.00 0.00 0.00 82 1018.4
20260902033009 82 109 3.0 6.0 0.00 0.00 0.00 83 1018.6
20260902031508 82 113 2.0 4.0 0.00 0.00 0.00 82 1018.6
20260902030007 83 111 1.0 4.0 0.00 0.00 0.00 80 1018.5
20260902024508 85 111 3.0 6.0 0.00 0.00 0.00 78 1018.4
20260902023014 85 112 3.0 6.0 0.00 0.00 0.00 77 1018.4
20260902021506 86 110 3.0 4.0 0.00 0.00 0.00 75 1018.3
20260902020004 87 115 3.0 6.0 0.00 0.00 0.00 74 1018.3
20260902014504 88 109 4.0 8.0 0.00 0.00 0.00 72 1018.1